Location: Quaker Farms
(41.4276°N, 73.1557°W)
Time: 09:16:48
(UTC+00:00)

Courier 1B Rocket - All Passes

Search period start: 15 June 2021 00:00
Search period end: 25 June 2021 00:00
Orbit: 920 x 1202 km, 28.2° (Epoch: 14 June)

Date Brightness Start Highest point End Pass type
(mag) Time Alt. Az. Time Alt. Az. Time Alt. Az.
15 Jun - 01:16:58 10° SSW 01:20:45 16° SSE 01:24:28 10° SE visible
15 Jun - 03:08:20 10° SW 03:13:11 24° S 03:18:02 10° SE visible
15 Jun - 05:01:13 10° WSW 05:05:40 21° S 05:10:11 10° SE night (unlit)
15 Jun - 06:57:27 10° SSW 06:58:03 10° SSW 06:58:37 10° SSW night (unlit)
16 Jun - 00:17:15 10° S 00:20:02 13° SSE 00:22:46 10° SE daylight
16 Jun - 02:07:41 10° SW 02:12:27 22° S 02:17:09 10° ESE visible
16 Jun - 04:00:12 10° WSW 04:04:57 23° S 04:09:42 10° SE visible
16 Jun - 05:54:23 10° SW 05:57:20 14° SSW 06:00:20 10° S night (unlit)
17 Jun - 01:07:09 10° SSW 01:11:43 20° SSE 01:16:09 10° ESE visible
17 Jun - 02:59:17 10° SW 03:04:13 24° S 03:09:05 10° SE visible
17 Jun - 04:52:47 10° SW 04:56:39 17° SSW 05:00:33 10° SSE night (unlit)
18 Jun - 00:06:50 10° SSW 00:10:58 17° SSE 00:15:00 10° SE daylight
18 Jun - 01:58:26 10° SW 02:03:28 24° S 02:08:22 10° SE visible
18 Jun - 03:51:30 10° WSW 03:55:57 20° SSW 04:00:23 10° SE visible
18 Jun - 23:06:52 10° S 23:10:13 14° SSE 23:13:28 10° SE daylight
19 Jun - 00:57:40 10° SW 01:02:43 23° S 01:07:34 10° ESE visible
19 Jun - 02:50:23 10° WSW 02:55:14 23° S 03:00:00 10° SE visible
19 Jun - 04:44:49 10° SW 04:47:36 13° SSW 04:50:23 10° S visible
19 Jun - 22:07:55 10° S 22:09:27 11° SSE 22:10:58 10° SE daylight
19 Jun - 23:57:01 10° SW 00:01:56 21° S 00:06:39 10° ESE daylight
20 Jun - 01:49:21 10° SW 01:54:29 25° S 01:59:27 10° SE visible
20 Jun - 03:43:02 10° SW 03:46:56 17° SSW 03:50:47 10° SSE visible
20 Jun - 22:56:33 10° SSW 23:01:08 19° SSE 23:05:33 10° ESE daylight
21 Jun - 00:48:23 10° SW 00:53:43 25° S 00:58:49 10° SE daylight
21 Jun - 02:41:37 10° WSW 02:46:13 21° SSW 02:50:43 10° SSE visible
21 Jun - 21:56:23 10° SSW 22:00:19 16° SSE 22:04:08 10° SE daylight
21 Jun - 23:47:30 10° SW 23:52:54 25° S 23:58:03 10° ESE daylight
22 Jun - 01:40:23 10° WSW 01:45:29 24° S 01:50:24 10° SE visible
22 Jun - 03:35:00 10° SW 03:37:51 13° SSW 03:40:40 10° S visible
22 Jun - 20:56:56 10° S 20:59:30 12° SSE 21:02:02 10° SE daylight
22 Jun - 22:46:44 10° SW 22:52:04 23° S 22:57:09 10° ESE daylight
23 Jun - 00:39:14 10° WSW 00:44:42 26° S 00:49:54 10° SE daylight
23 Jun - 02:33:04 10° WSW 02:37:10 17° SSW 02:41:09 10° SSE visible
23 Jun - 21:46:09 10° SSW 21:51:12 20° SSE 21:56:03 10° ESE daylight
23 Jun - 23:38:10 10° SW 23:43:52 27° S 23:49:16 10° SE daylight
24 Jun - 01:31:33 10° WSW 01:36:26 21° SSW 01:41:08 10° SSE visible
24 Jun - 20:45:52 10° SSW 20:50:21 17° SSE 20:54:39 10° ESE daylight
24 Jun - 22:37:12 10° SW 22:43:00 26° S 22:48:30 10° ESE daylight
